BEIDOU-3 M10 (C30)

Last updated on Wed Nov 20 2024 00:03:14 GMT+0000 (Coordinated Universal Time)

1 43246U 18029B 24324.33890716 -.00000077 00000+0 00000+0 0 9994 2 43246 54.6964 319.9957 0003710 343.8592 16.1320 1.86232788 45178
UTC large
Height (km)
Speed (km/s)
/
Latitude / Longitude
Inclination (degrees)
Orbital Period (minutes)
Azimuth
Elevation
Range (km)
Doppler Factor

Next 0 passes for location: London (51.5072 / 0.1276)

Sorry there are no passes over London.